utc_time,unix_time,temp,cond,salinity,tds,chla_rfu,chla_ugl,bga_rfu,bga_ugl,odo,sat,nitrate_um,nitrogen_mg,stage,area,discharge,total_discharge
2021-03-01 00:16:00+00:00,1614557760,11.99,,,,,,,,,,87.288,1.2226,0.784,1.2544,-0.0715008,-0.1430016
2021-03-01 00:36:00+00:00,1614558960,12.02,,,,,,,,,,89.855,1.25857,0.787,1.2592,0.0717744,0.1435488
2021-03-01 00:56:00+00:00,1614560160,11.96,,,,,,,,,,102.012,1.42886,0.787,1.2592,0.0831072,0.1662144
2021-03-01 01:16:00+00:00,1614561360,11.97,,,,,,,,,,100.837,1.41241,0.787,1.2592,0.0277024,0.0554048
2021-03-01 01:36:00+00:00,1614562560,11.93,,,,,,,,,,102.394,1.43419,0.788,1.2608,0.2004672,0.4009344
2021-03-01 01:56:00+00:00,1614563760,11.89,,,,,,,,,,98.633,1.38153,0.788,1.2608,0.0428672,0.0857344
2021-03-01 02:16:00+00:00,1614564960,11.78,,,,,,,,,,99.317,1.39109,0.79,1.264,0.077104,0.154208
2021-03-01 02:36:00+00:00,1614566160,11.8,,,,,,,,,,97.379,1.36397,0.794,1.2704,0.019056,0.038112
2021-03-01 02:56:00+00:00,1614567360,11.89,,,,,,,,,,93.522,1.30995,0.796,1.2736,0.1057088,0.2114176
2021-03-01 03:16:00+00:00,1614568560,12.08,,,,,,,,,,92.033,1.28907,0.799,1.2784,0.0728688,0.1457376
2021-03-01 03:36:00+00:00,1614569760,12.33,,,,,,,,,,88.353,1.23755,0.802,1.2832,0.0692928,0.1385856
2021-03-01 03:56:00+00:00,1614570960,12.56,,,,,,,,,,86.593,1.21291,0.808,1.2928,0.1008384,0.2016768
2021-03-01 04:16:00+00:00,1614572160,12.84,,,,,,,,,,78.711,1.10247,0.801,1.2816,0.1768608,0.3537216
2021-03-01 04:36:00+00:00,1614573360,13.32,,,,,,,,,,76.605,1.073,0.798,1.2768,0.140448,0.280896
2021-03-01 04:56:00+00:00,1614574560,13.88,,,,,,,,,,65.046,0.9111,0.79,1.264,0.175696,0.351392
2021-03-01 05:16:00+00:00,1614575760,14.06,,,,,,,,,,65.025,0.91077,0.788,1.2608,0.1563392,0.3126784
2021-03-01 05:36:00+00:00,1614576960,14.58,,,,,,,,,,60.45,0.84672,0.788,1.2608,-0.0264768,-0.0529536
2021-03-01 05:56:00+00:00,1614578160,14.97,,,,,,,,,,52.712,0.73834,0.79,1.264,0.0316,0.0632
2021-03-01 06:16:00+00:00,1614579360,15.01,,,,,,,,,,48.733,0.68259,0.792,1.2672,0.1431936,0.2863872
2021-03-01 06:36:00+00:00,1614580560,15.39,,,,,,,,,,44.482,0.62304,0.791,1.2656,0.0050624,0.0101248
2021-03-01 06:56:00+00:00,1614581760,16.42,,,,,,,,,,40.458,0.56665,0.792,1.2672,0.0481536,0.0963072
2021-03-01 07:16:00+00:00,1614582960,16.41,,,,,,,,,,40.868,0.57243,0.79,1.264,-0.178224,-0.356448
2021-03-01 07:36:00+00:00,1614584160,16.69,,,,,,,,,,36.673,0.51365,0.792,1.2672,0,0
2021-03-01 07:56:00+00:00,1614585360,17.54,,,,,,,,,,50.135,0.70224,0.773,1.2368,-0.179336,-0.358672
2021-03-01 08:16:00+00:00,1614586560,17.76,,,,,,,,,,52.691,0.73803,0.762,1.2192,-0.329184,-0.658368
2021-03-01 08:36:00+00:00,1614587760,17.72,,,,,,,,,,41.545,0.58189,0.758,1.2128,-0.382032,-0.764064
2021-03-01 08:56:00+00:00,1614588960,17.55,,,,,,,,,,35.086,0.49145,0.754,1.2064,-0.3100448,-0.6200896
2021-03-01 09:16:00+00:00,1614590160,17.3,,,,,,,,,,28.197,0.39495,0.748,1.1968,-0.3853696,-0.7707392
2021-03-01 09:36:00+00:00,1614591360,17.03,,,,,,,,,,21.964,0.30764,0.746,1.1936,-0.2530432,-0.5060864
2021-03-01 09:56:00+00:00,1614592560,16.78,,,,,,,,,,22.363,0.31322,0.745,1.192,-0.32184,-0.64368
2021-03-01 10:16:00+00:00,1614593760,16.62,,,,,,,,,,21.192,0.29684,0.739,1.1824,-0.3086064,-0.6172128
2021-03-01 10:36:00+00:00,1614594960,16.61,,,,,,,,,,26.842,0.37598,0.734,1.1744,-0.32296,-0.64592
2021-03-01 10:56:00+00:00,1614596160,16.53,,,,,,,,,,33.067,0.46313,0.737,1.1792,-0.2110768,-0.4221536
2021-03-01 11:16:00+00:00,1614597360,16.41,,,,,,,,,,46.916,0.65714,0.755,1.208,0.038656,0.077312
2021-03-01 11:36:00+00:00,1614598560,16.39,,,,,,,,,,58.666,0.8217,0.752,1.2032,0.0072192,0.0144384
2021-03-01 11:56:00+00:00,1614599760,16.3,,,,,,,,,,40.735,0.57057,0.752,1.2032,0.0998656,0.1997312
2021-03-01 12:16:00+00:00,1614600960,16.31,,,,,,,,,,44.238,0.61966,0.755,1.208,-0.003624,-0.007248
2021-03-01 12:36:00+00:00,1614602160,16.27,,,,,,,,,,37.258,0.52187,0.755,1.208,0.010872,0.021744
2021-03-01 12:56:00+00:00,1614603360,16.22,,,,,,,,,,28.707,0.40208,0.756,1.2096,0.042336,0.084672
2021-03-01 13:16:00+00:00,1614604560,16.16,,,,,,,,,,31.528,0.4416,0.757,1.2112,0.0109008,0.0218016
2021-03-01 13:36:00+00:00,1614605760,16.1,,,,,,,,,,31.057,0.43502,0.757,1.2112,-0.0109008,-0.0218016
2021-03-01 13:56:00+00:00,1614606960,16.03,,,,,,,,,,29.407,0.41187,0.759,1.2144,0.0704352,0.1408704
2021-03-01 14:16:00+00:00,1614608160,15.95,,,,,,,,,,33.212,0.46521,0.76,1.216,0.093632,0.187264
2021-03-01 14:36:00+00:00,1614609360,15.83,,,,,,,,,,36.077,0.50533,0.765,1.224,0.056304,0.112608
2021-03-01 14:56:00+00:00,1614610560,15.64,,,,,,,,,,28.126,0.39396,0.763,1.2208,0.109872,0.219744
2021-03-01 15:16:00+00:00,1614611760,15.39,,,,,,,,,,30.571,0.4282,0.766,1.2256,0.1630048,0.3260096
2021-03-01 15:36:00+00:00,1614612960,15,,,,,,,,,,24.761,0.34683,0.767,1.2272,0.079768,0.159536
2021-03-01 15:56:00+00:00,1614614160,14.56,,,,,,,,,,24.94,0.34933,0.767,1.2272,0.1251744,0.2503488
2021-03-01 16:16:00+00:00,1614615360,14.16,,,,,,,,,,27.707,0.38808,0.767,1.2272,0.0171808,0.0343616
2021-03-01 16:36:00+00:00,1614616560,13.79,,,,,,,,,,26.773,0.375,0.767,1.2272,0.0834496,0.1668992
2021-03-01 16:56:00+00:00,1614617760,13.54,,,,,,,,,,24.927,0.34914,0.767,1.2272,0.0687232,0.1374464
2021-03-01 17:16:00+00:00,1614618960,13.21,,,,,,,,,,29.087,0.40741,0.769,1.2304,-0.0258384,-0.0516768
2021-03-01 17:36:00+00:00,1614620160,12.93,,,,,,,,,,26.268,0.36794,0.766,1.2256,0.0563776,0.1127552
2021-03-01 17:56:00+00:00,1614621360,12.72,,,,,,,,,,43.704,0.61218,0.772,1.2352,0.06176,0.12352
2021-03-01 18:16:00+00:00,1614622560,12.57,,,,,,,,,,45.571,0.6383,0.773,1.2368,-0.0136048,-0.0272096
2021-03-01 18:36:00+00:00,1614623760,12.45,,,,,,,,,,54.183,0.75892,0.769,1.2304,0.024608,0.049216
2021-03-01 18:56:00+00:00,1614624960,12.3,,,,,,,,,,56.658,0.79358,0.774,1.2384,0.111456,0.222912
2021-03-01 19:16:00+00:00,1614626160,12.21,,,,,,,,,,57.214,0.80139,0.774,1.2384,0.0136224,0.0272448
2021-03-01 19:36:00+00:00,1614627360,12.15,,,,,,,,,,52.024,0.72869,0.775,1.24,0.07192,0.14384
2021-03-01 19:56:00+00:00,1614628560,12.11,,,,,,,,,,47.363,0.66337,0.778,1.2448,0.0709536,0.1419072
2021-03-01 20:16:00+00:00,1614629760,12.03,,,,,,,,,,48.587,0.68056,0.775,1.24,0.05208,0.10416
2021-03-01 20:36:00+00:00,1614630960,11.98,,,,,,,,,,45.154,0.63246,0.777,1.2432,0.03108,0.06216
2021-03-01 20:56:00+00:00,1614632160,11.94,,,,,,,,,,46.125,0.64604,0.78,1.248,0.032448,0.064896
2021-03-01 21:16:00+00:00,1614633360,11.9,,,,,,,,,,44.585,0.6245,0.776,1.2416,0.0608384,0.1216768
2021-03-01 21:36:00+00:00,1614634560,11.8,,,,,,,,,,41.577,0.58234,0.775,1.24,0.0682,0.1364
2021-03-01 21:56:00+00:00,1614635760,11.75,,,,,,,,,,43.047,0.60296,0.776,1.2416,-0.0409728,-0.0819456
2021-03-01 22:16:00+00:00,1614636960,11.65,,,,,,,,,,44.035,0.61679,0.777,1.2432,-0.006216,-0.012432
2021-03-01 22:36:00+00:00,1614638160,11.56,,,,,,,,,,46.482,0.65106,0.774,1.2384,0.080496,0.160992
2021-03-01 22:56:00+00:00,1614639360,11.46,,,,,,,,,,44.86,0.62836,0.777,1.2432,0.006216,0.012432
2021-03-01 23:16:00+00:00,1614640560,11.41,,,,,,,,,,43.205,0.60514,0.782,1.2512,-0.0925888,-0.1851776
2021-03-01 23:36:00+00:00,1614641760,11.36,,,,,,,,,,43.701,0.61212,0.783,1.2528,0.0764208,0.1528416
2021-03-01 23:56:00+00:00,1614642960,11.2,,,,,,,,,,41.211,0.57725,0.785,1.256,0.040192,0.080384
2021-03-02 00:16:00+00:00,1614644160,11.02,,,,,,,,,,41.142,0.57627,0.788,1.2608,0.0226944,0.0453888
2021-03-02 00:36:00+00:00,1614645360,10.97,,,,,,,,,,40.923,0.57319,0.79,1.264,-0.112496,-0.224992
2021-03-02 00:56:00+00:00,1614646560,10.97,,,,,,,,,,42.325,0.59286,0.79,1.264,0.096064,0.192128
2021-03-02 01:16:00+00:00,1614647760,11.09,,,,,,,,,,43.461,0.60875,0.795,1.272,0.024168,0.048336
2021-03-02 01:36:00+00:00,1614648960,11.13,,,,,,,,,,42.747,0.59874,0.794,1.2704,0.1308512,0.2617024
2021-03-02 01:56:00+00:00,1614650160,11.21,,,,,,,,,,42.466,0.59481,0.785,1.256,0.089176,0.178352
2021-03-02 02:16:00+00:00,1614651360,11.3,,,,,,,,,,42.007,0.58839,0.78,1.248,0.026208,0.052416
2021-03-02 02:36:00+00:00,1614652560,11.46,,,,,,,,,,41.055,0.57504,0.778,1.2448,0.056016,0.112032
2021-03-02 02:56:00+00:00,1614653760,11.8,,,,,,,,,,40.163,0.56256,0.781,1.2496,0.1174624,0.2349248
2021-03-02 03:16:00+00:00,1614654960,12.34,,,,,,,,,,39.096,0.5476,0.783,1.2528,0.0776736,0.1553472
2021-03-02 03:36:00+00:00,1614656160,13.02,,,,,,,,,,39.654,0.55541,0.787,1.2592,0.0201472,0.0402944
2021-03-02 03:56:00+00:00,1614657360,13.57,,,,,,,,,,40.611,0.56883,0.787,1.2592,0.0742928,0.1485856
2021-03-02 04:16:00+00:00,1614658560,13.42,,,,,,,,,,42.407,0.59399,0.785,1.256,0.116808,0.233616
2021-03-02 04:36:00+00:00,1614659760,13.65,,,,,,,,,,34.403,0.48188,0.786,1.2576,-0.0578496,-0.1156992
2021-03-02 04:56:00+00:00,1614660960,13.95,,,,,,,,,,33.729,0.47242,0.789,1.2624,0.0681696,0.1363392
2021-03-02 05:16:00+00:00,1614662160,14.36,,,,,,,,,,34.136,0.4781,0.789,1.2624,0.0530208,0.1060416
2021-03-02 05:36:00+00:00,1614663360,14.73,,,,,,,,,,31.866,0.44636,0.789,1.2624,0.1249776,0.2499552
2021-03-02 05:56:00+00:00,1614664560,15.08,,,,,,,,,,35.514,0.49744,0.788,1.2608,-0.037824,-0.075648
2021-03-02 06:16:00+00:00,1614665760,15.39,,,,,,,,,,35.986,0.50403,0.791,1.2656,0.1063104,0.2126208
2021-03-02 06:36:00+00:00,1614666960,15.3,,,,,,,,,,32.1,0.44961,0.79,1.264,0.015168,0.030336
2021-03-02 06:56:00+00:00,1614668160,16.06,,,,,,,,,,38.081,0.53339,0.792,1.2672,0.0240768,0.0481536
2021-03-02 07:16:00+00:00,1614669360,16.26,,,,,,,,,,36.551,0.51196,0.793,1.2688,0.0469456,0.0938912
2021-03-02 07:36:00+00:00,1614670560,16.37,,,,,,,,,,32.856,0.4602,0.796,1.2736,0.050944,0.101888
2021-03-02 07:56:00+00:00,1614671760,16.45,,,,,,,,,,32.711,0.45817,0.796,1.2736,0.0534912,0.1069824
2021-03-02 08:16:00+00:00,1614672960,16.61,,,,,,,,,,31.858,0.44622,0.8,1.28,0.07552,0.15104
2021-03-02 08:36:00+00:00,1614674160,16.89,,,,,,,,,,29.583,0.41435,0.798,1.2768,-0.0306432,-0.0612864
2021-03-02 08:56:00+00:00,1614675360,16.87,,,,,,,,,,32.899,0.46081,0.8,1.28,-0.00768,-0.01536
2021-03-02 09:16:00+00:00,1614676560,17.03,,,,,,,,,,33.952,0.47554,0.785,1.256,-0.202216,-0.404432
2021-03-02 09:36:00+00:00,1614677760,17.02,,,,,,,,,,32.967,0.46174,0.779,1.2464,-0.3564704,-0.7129408
2021-03-02 09:56:00+00:00,1614678960,16.87,,,,,,,,,,25.044,0.35081,0.771,1.2336,-0.3540432,-0.7080864
2021-03-02 10:16:00+00:00,1614680160,16.64,,,,,,,,,,17.362,0.24318,0.768,1.2288,-0.3661824,-0.7323648
2021-03-02 10:36:00+00:00,1614681360,16.44,,,,,,,,,,14.532,0.20354,0.772,1.2352,-0.259392,-0.518784
2021-03-02 10:56:00+00:00,1614682560,16.28,,,,,,,,,,12.697,-0.01934,0.783,1.2528,0.0663984,0.1327968
2021-03-02 11:16:00+00:00,1614683760,16.27,,,,,,,,,,23.991,0.33603,0.78,1.248,-0.002496,-0.004992
2021-03-02 11:36:00+00:00,1614684960,16.15,,,,,,,,,,23.28,0.32607,0.78,1.248,-0.007488,-0.014976
2021-03-02 11:56:00+00:00,1614686160,16.23,,,,,,,,,,20.235,0.28341,0.78,1.248,0.073632,0.147264
2021-03-02 12:16:00+00:00,1614687360,16.27,,,,,,,,,,25.937,0.36329,0.781,1.2496,-0.0112464,-0.0224928
2021-03-02 12:36:00+00:00,1614688560,16.26,,,,,,,,,,22.738,0.31848,0.781,1.2496,0.0162448,0.0324896
2021-03-02 12:56:00+00:00,1614689760,16.14,,,,,,,,,,21.974,0.30778,0.781,1.2496,0.0137456,0.0274912
2021-03-02 13:16:00+00:00,1614690960,16.06,,,,,,,,,,21.214,0.29715,0.783,1.2528,0.0651456,0.1302912
2021-03-02 13:36:00+00:00,1614692160,15.85,,,,,,,,,,18.371,0.2573,0.783,1.2528,0.06264,0.12528
2021-03-02 13:56:00+00:00,1614693360,15.67,,,,,,,,,,21.17,0.29652,0.784,1.2544,0.1417472,0.2834944
2021-03-02 14:16:00+00:00,1614694560,15.47,,,,,,,,,,20.648,0.28921,0.788,1.2608,0.0579968,0.1159936
2021-03-02 14:36:00+00:00,1614695760,15.2,,,,,,,,,,17.96,0.25156,0.774,1.2384,0.148608,0.297216
2021-03-02 14:56:00+00:00,1614696960,14.98,,,,,,,,,,18.146,0.25418,0.79,1.264,0.080896,0.161792
2021-03-02 15:16:00+00:00,1614698160,14.64,,,,,,,,,,17.456,0.24449,0.791,1.2656,0.1252944,0.2505888
2021-03-02 15:36:00+00:00,1614699360,14.47,,,,,,,,,,18.923,0.26504,0.791,1.2656,0.107576,0.215152
2021-03-02 15:56:00+00:00,1614700560,14.33,,,,,,,,,,19.787,0.27716,0.792,1.2672,0.2230272,0.4460544
2021-03-02 16:16:00+00:00,1614701760,14.11,,,,,,,,,,19.299,0.27029,0.793,1.2688,0.038064,0.076128
2021-03-02 16:36:00+00:00,1614702960,13.76,,,,,,,,,,17.187,0.24073,0.795,1.272,0.14628,0.29256
2021-03-02 16:56:00+00:00,1614704160,13.35,,,,,,,,,,17.831,0.24976,0.798,1.2768,0.210672,0.421344
2021-03-02 17:16:00+00:00,1614705360,12.97,,,,,,,,,,21.447,0.30042,0.8,1.28,-0.02944,-0.05888
2021-03-02 17:36:00+00:00,1614706560,12.71,,,,,,,,,,29.017,0.40643,0.799,1.2784,0.1419024,0.2838048
2021-03-02 17:56:00+00:00,1614707760,12.35,,,,,,,,,,42.559,0.59611,0.799,1.2784,0.0473008,0.0946016
2021-03-02 18:16:00+00:00,1614708960,12.2,,,,,,,,,,43.36,0.60733,0.8,1.28,0.04352,0.08704
2021-03-02 18:36:00+00:00,1614710160,12.06,,,,,,,,,,33.888,0.47465,0.799,1.2784,0.1252832,0.2505664
2021-03-02 18:56:00+00:00,1614711360,11.95,,,,,,,,,,32.826,0.4598,0.801,1.2816,-0.0422928,-0.0845856
2021-03-02 19:16:00+00:00,1614712560,11.85,,,,,,,,,,35.813,0.50164,0.803,1.2848,-0.0077088,-0.0154176
2021-03-02 19:36:00+00:00,1614713760,11.76,,,,,,,,,,34.947,0.48951,0.804,1.2864,0.06432,0.12864
2021-03-02 19:56:00+00:00,1614714960,11.63,,,,,,,,,,33.704,0.47213,0.803,1.2848,0.0629552,0.1259104
2021-03-02 20:16:00+00:00,1614716160,11.54,,,,,,,,,,48.837,0.68408,0.807,1.2912,-0.1446144,-0.2892288
2021-03-02 20:36:00+00:00,1614717360,11.49,,,,,,,,,,49.81,0.69765,0.807,1.2912,0.0490656,0.0981312
2021-03-02 20:56:00+00:00,1614718560,11.43,,,,,,,,,,50.238,0.70369,0.806,1.2896,-0.0361088,-0.0722176
2021-03-02 21:16:00+00:00,1614719760,11.39,,,,,,,,,,45.359,0.63535,0.809,1.2944,0.0673088,0.1346176
2021-03-02 21:36:00+00:00,1614720960,11.34,,,,,,,,,,44.091,0.61758,0.806,1.2896,-0.0180544,-0.0361088
2021-03-02 21:56:00+00:00,1614722160,11.29,,,,,,,,,,43.207,0.60519,0.807,1.2912,0.0348624,0.0697248
2021-03-02 22:16:00+00:00,1614723360,11.32,,,,,,,,,,41.215,0.57729,0.808,1.2928,0.0491264,0.0982528
2021-03-02 22:36:00+00:00,1614724560,11.24,,,,,,,,,,40.214,0.56324,0.809,1.2944,-0.090608,-0.181216
2021-03-02 22:56:00+00:00,1614725760,11.21,,,,,,,,,,39.994,0.5602,0.808,1.2928,0.0155136,0.0310272
2021-03-02 23:16:00+00:00,1614726960,11.17,,,,,,,,,,40.924,0.5732,0.809,1.2944,0.0181216,0.0362432
2021-03-02 23:36:00+00:00,1614728160,11.12,,,,,,,,,,41.076,0.57533,0.81,1.296,0.057024,0.114048
2021-03-02 23:56:00+00:00,1614729360,11.1,,,,,,,,,,40.8,0.57146,0.813,1.3008,0.1001616,0.2003232
2021-03-03 00:16:00+00:00,1614730560,11.03,,,,,,,,,,39.771,0.55706,0.81,1.296,-0.029808,-0.059616
2021-03-03 00:36:00+00:00,1614731760,10.92,,,,,,,,,,38.47,0.53884,0.811,1.2976,0.1064032,0.2128064
2021-03-03 00:56:00+00:00,1614732960,10.92,,,,,,,,,,37.46,0.5247,0.816,1.3056,0.0705024,0.1410048
2021-03-03 01:16:00+00:00,1614734160,10.88,,,,,,,,,,36.883,0.51659,0.816,1.3056,0.1083648,0.2167296
2021-03-03 01:36:00+00:00,1614735360,10.93,,,,,,,,,,35.019,0.49049,0.813,1.3008,0.13008,0.26016
2021-03-03 01:56:00+00:00,1614736560,10.84,,,,,,,,,,34.012,0.4764,0.812,1.2992,0.071456,0.142912
2021-03-03 02:16:00+00:00,1614737760,10.88,,,,,,,,,,32.095,0.44957,0.809,1.2944,-0.0284768,-0.0569536
2021-03-03 02:36:00+00:00,1614738960,10.99,,,,,,,,,,-15.698,-0.21989,0.809,1.2944,0.1177904,0.2355808
2021-03-03 02:56:00+00:00,1614740160,11.14,,,,,,,,,,-22.49,-0.315,0.806,1.2896,0.0928512,0.1857024
2021-03-03 03:16:00+00:00,1614741360,11.34,,,,,,,,,,19.815,0.27754,0.807,1.2912,0.0400272,0.0800544
2021-03-03 03:36:00+00:00,1614742560,11.47,,,,,,,,,,30.264,0.4239,0.809,1.2944,0.038832,0.077664
2021-03-03 03:56:00+00:00,1614743760,12.44,,,,,,,,,,29.933,0.41927,0.805,1.288,0.17388,0.34776
2021-03-03 04:16:00+00:00,1614744960,12.77,,,,,,,,,,35.999,0.50422,0.805,1.288,0.1288,0.2576
2021-03-03 04:36:00+00:00,1614746160,13.27,,,,,,,,,,28.021,0.39246,0.804,1.2864,-0.0810432,-0.1620864
2021-03-03 04:56:00+00:00,1614747360,13.92,,,,,,,,,,25.295,0.35427,0.808,1.2928,0.1137664,0.2275328
2021-03-03 05:16:00+00:00,1614748560,14.32,,,,,,,,,,23.583,0.33031,0.808,1.2928,0.006464,0.012928
2021-03-03 05:36:00+00:00,1614749760,14.86,,,,,,,,,,36.809,0.51557,0.812,1.2992,-0.0753536,-0.1507072
2021-03-03 05:56:00+00:00,1614750960,15.03,,,,,,,,,,30.639,0.42915,0.815,1.304,0.148656,0.297312
2021-03-03 06:16:00+00:00,1614752160,15.21,,,,,,,,,,24.943,0.15218,0.816,1.3056,0.1148928,0.2297856
2021-03-03 06:36:00+00:00,1614753360,15.4,,,,,,,,,,30.334,0.42485,0.817,1.3072,-0.006536,-0.013072
2021-03-03 06:56:00+00:00,1614754560,15.24,,,,,,,,,,30.667,0.42956,0.82,1.312,0.049856,0.099712
2021-03-03 07:16:00+00:00,1614755760,15.39,,,,,,,,,,35.257,0.49384,0.823,1.3168,-0.079008,-0.158016
2021-03-03 07:36:00+00:00,1614756960,15.43,,,,,,,,,,36.857,0.51623,0.821,1.3136,0.0630528,0.1261056
2021-03-03 07:56:00+00:00,1614758160,15.42,,,,,,,,,,36.805,0.51549,0.826,1.3216,0.118944,0.237888
2021-03-03 08:16:00+00:00,1614759360,15.33,,,,,,,,,,37.976,0.53193,0.828,1.3248,0.0953856,0.1907712
2021-03-03 08:36:00+00:00,1614760560,15.27,,,,,,,,,,38.301,0.53647,0.827,1.3232,0.0383728,0.0767456
2021-03-03 08:56:00+00:00,1614761760,15.14,,,,,,,,,,40.557,0.56805,0.828,1.3248,-0.1298304,-0.2596608
2021-03-03 09:16:00+00:00,1614762960,15.12,,,,,,,,,,44.107,0.61779,0.83,1.328,0.03984,0.07968
2021-03-03 09:36:00+00:00,1614764160,15.1,,,,,,,,,,44.178,0.61879,0.831,1.3296,-0.0053184,-0.0106368
2021-03-03 09:56:00+00:00,1614765360,15.04,,,,,,,,,,48.423,0.67825,0.831,1.3296,0.053184,0.106368
2021-03-03 10:16:00+00:00,1614766560,14.99,,,,,,,,,,50.296,0.70448,0.832,1.3312,0.0146432,0.0292864
2021-03-03 10:36:00+00:00,1614767760,14.87,,,,,,,,,,50.862,0.71243,0.833,1.3328,0.0346528,0.0693056
2021-03-03 10:56:00+00:00,1614768960,14.81,,,,,,,,,,52.998,0.74232,0.833,1.3328,-0.039984,-0.079968
2021-03-03 11:16:00+00:00,1614770160,14.74,,,,,,,,,,52.47,0.73491,0.833,1.3328,-0.0253232,-0.0506464
2021-03-03 11:36:00+00:00,1614771360,14.64,,,,,,,,,,49.871,0.69855,0.835,1.336,0.108216,0.216432
2021-03-03 11:56:00+00:00,1614772560,14.55,,,,,,,,,,48.416,0.67817,0.837,1.3392,0,0
2021-03-03 12:16:00+00:00,1614773760,14.41,,,,,,,,,,48.738,0.68265,0.837,1.3392,-0.0080352,-0.0160704
2021-03-03 12:36:00+00:00,1614774960,14.29,,,,,,,,,,49.86,0.69836,0.836,1.3376,0.1350976,0.2701952
2021-03-03 12:56:00+00:00,1614776160,14.13,,,,,,,,,,50.194,0.70307,0.837,1.3392,0.0575856,0.1151712
2021-03-03 13:16:00+00:00,1614777360,13.98,,,,,,,,,,47.885,0.67072,0.838,1.3408,0.0254752,0.0509504
2021-03-03 13:36:00+00:00,1614778560,13.83,,,,,,,,,,46.367,0.64945,0.838,1.3408,0.0321792,0.0643584
2021-03-03 13:56:00+00:00,1614779760,13.64,,,,,,,,,,42.87,0.60046,0.839,1.3424,0.0281904,0.0563808
2021-03-03 14:16:00+00:00,1614780960,13.39,,,,,,,,,,37.176,0.52074,0.838,1.3408,0.006704,0.013408
2021-03-03 14:36:00+00:00,1614782160,13.12,,,,,,,,,,32.891,0.46071,0.84,1.344,0.022848,0.045696
2021-03-03 14:56:00+00:00,1614783360,13.03,,,,,,,,,,34.194,0.47894,0.843,1.3488,-0.0188832,-0.0377664
2021-03-03 15:16:00+00:00,1614784560,13.07,,,,,,,,,,22.994,0.32207,0.847,1.3552,0.223608,0.447216
2021-03-03 15:36:00+00:00,1614785760,13.01,,,,,,,,,,20.006,0.28021,0.848,1.3568,0.1180416,0.2360832
2021-03-03 15:56:00+00:00,1614786960,12.98,,,,,,,,,,59.733,0.83667,0.849,1.3584,0.0638448,0.1276896
2021-03-03 16:16:00+00:00,1614788160,12.99,,,,,,,,,,105.73,1.48093,0.849,1.3584,0.0461856,0.0923712
2021-03-03 16:36:00+00:00,1614789360,12.97,,,,,,,,,,115.621,1.61946,0.851,1.3616,0.2001552,0.4003104
2021-03-03 16:56:00+00:00,1614790560,12.98,,,,,,,,,,88.449,1.23888,0.857,1.3712,0.0863856,0.1727712
2021-03-03 17:16:00+00:00,1614791760,12.99,,,,,,,,,,93.803,1.31387,0.857,1.3712,0.1768848,0.3537696
2021-03-03 17:36:00+00:00,1614792960,12.77,,,,,,,,,,85.369,1.19575,0.859,1.3744,0.0852128,0.1704256
2021-03-03 17:56:00+00:00,1614794160,12.56,,,,,,,,,,,,0.86,1.376,0.1376,0.2752
2021-03-03 18:16:00+00:00,1614795360,12.05,,,,,,,,,,,,0.859,1.3744,0.1319424,0.2638848
2021-03-03 18:36:00+00:00,1614796560,11.85,,,,,,,,,,,,0.861,1.3776,0.0537264,0.1074528
2021-03-03 18:56:00+00:00,1614797760,11.67,,,,,,,,,,,,0.866,1.3856,0.131632,0.263264
2021-03-03 19:16:00+00:00,1614798960,11.62,,,,,,,,,,57.504,0.80541,0.867,1.3872,0.06936,0.13872
2021-03-03 19:36:00+00:00,1614800160,11.54,,,,,,,,,,63.609,0.89096,0.867,1.3872,0.1442688,0.2885376
2021-03-03 19:56:00+00:00,1614801360,11.47,,,,,,,,,,58.441,0.81857,0.867,1.3872,0.0221952,0.0443904
2021-03-03 20:16:00+00:00,1614802560,11.39,,,,,,,,,,63.501,0.88944,0.868,1.3888,0.0611072,0.1222144
2021-03-03 20:36:00+00:00,1614803760,11.3,,,,,,,,,,63.621,0.89114,0.869,1.3904,0.0736912,0.1473824
2021-03-03 20:56:00+00:00,1614804960,11.25,,,,,,,,,,66.034,0.92492,0.869,1.3904,0.1167936,0.2335872
2021-03-03 21:16:00+00:00,1614806160,11.19,,,,,,,,,,69.213,0.96944,0.87,1.392,-0.070992,-0.141984
2021-03-03 21:36:00+00:00,1614807360,11.15,,,,,,,,,,63.342,0.8872,0.87,1.392,-0.100224,-0.200448
2021-03-03 21:56:00+00:00,1614808560,11.14,,,,,,,,,,56.431,0.79038,0.871,1.3936,0.020904,0.041808
2021-03-03 22:16:00+00:00,1614809760,11.16,,,,,,,,,,55.193,0.77307,0.872,1.3952,-0.0167424,-0.0334848
2021-03-03 22:36:00+00:00,1614810960,11.2,,,,,,,,,,58.093,0.81372,0.87,1.392,-0.00696,-0.01392
2021-03-03 22:56:00+00:00,1614812160,11.16,,,,,,,,,,56.142,0.78635,0.871,1.3936,-0.0613184,-0.1226368
2021-03-03 23:16:00+00:00,1614813360,11.09,,,,,,,,,,55.297,0.77454,0.875,1.4,0.021,0.042
2021-03-03 23:36:00+00:00,1614814560,10.93,,,,,,,,,,53.594,0.7507,0.874,1.3984,0.0363584,0.0727168
2021-03-03 23:56:00+00:00,1614815760,10.84,,,,,,,,,,47.092,0.65959,0.875,1.4,0.0392,0.0784
2021-03-04 00:16:00+00:00,1614816960,10.84,,,,,,,,,,42.285,0.5923,0.876,1.4016,0.056064,0.112128
2021-03-04 00:36:00+00:00,1614818160,10.82,,,,,,,,,,39.737,0.55657,0.878,1.4048,-0.0758592,-0.1517184
2021-03-04 00:56:00+00:00,1614819360,10.81,,,,,,,,,,44.606,0.62479,0.879,1.4064,0.1448592,0.2897184
2021-03-04 01:16:00+00:00,1614820560,10.78,,,,,,,,,,41.172,0.57666,0.879,1.4064,0.084384,0.168768
2021-03-04 01:36:00+00:00,1614821760,10.82,,,,,,,,,,44.956,0.6297,0.878,1.4048,0.0899072,0.1798144
2021-03-04 01:56:00+00:00,1614822960,10.87,,,,,,,,,,43.577,0.61037,0.878,1.4048,-0.1348608,-0.2697216
2021-03-04 02:16:00+00:00,1614824160,10.95,,,,,,,,,,44.102,0.61772,0.88,1.408,0.022528,0.045056
2021-03-04 02:36:00+00:00,1614825360,11.02,,,,,,,,,,43.913,0.6151,0.879,1.4064,0.1237632,0.2475264
2021-03-04 02:56:00+00:00,1614826560,11.14,,,,,,,,,,44.453,0.62264,0.879,1.4064,0.1631424,0.3262848
2021-03-04 03:16:00+00:00,1614827760,11.44,,,,,,,,,,40.191,0.56295,0.874,1.3984,-0.0475456,-0.0950912
2021-03-04 03:36:00+00:00,1614828960,11.82,,,,,,,,,,34.928,0.48922,0.87,1.392,0.185136,0.370272
2021-03-04 03:56:00+00:00,1614830160,12.34,,,,,,,,,,34.465,0.48274,0.874,1.3984,-0.013984,-0.027968
2021-03-04 04:16:00+00:00,1614831360,12.24,,,,,,,,,,34.55,0.48393,0.876,1.4016,0.231264,0.462528
2021-03-04 04:36:00+00:00,1614832560,12.99,,,,,,,,,,28.94,0.40536,0.867,1.3872,0.1706256,0.3412512
2021-03-04 04:56:00+00:00,1614833760,13.38,,,,,,,,,,26.852,0.37609,0.871,1.3936,0.1505088,0.3010176
2021-03-04 05:16:00+00:00,1614834960,13.63,,,,,,,,,,23.553,0.32986,0.873,1.3968,-0.0642528,-0.1285056
2021-03-04 05:36:00+00:00,1614836160,13.92,,,,,,,,,,21.552,0.30188,0.871,1.3936,0.146328,0.292656
2021-03-04 05:56:00+00:00,1614837360,14.37,,,,,,,,,,22.235,0.31143,0.871,1.3936,0.0989456,0.1978912
2021-03-04 06:16:00+00:00,1614838560,14.73,,,,,,,,,,21.941,0.30735,0.87,1.392,0.11136,0.22272
2021-03-04 06:36:00+00:00,1614839760,14.86,,,,,,,,,,19.034,0.26662,0.867,1.3872,0.0430032,0.0860064
2021-03-04 06:56:00+00:00,1614840960,15.21,,,,,,,,,,21.687,0.30376,0.87,1.392,0,0
2021-03-04 07:16:00+00:00,1614842160,15.28,,,,,,,,,,26.019,0.36442,0.872,1.3952,0.1032448,0.2064896
2021-03-04 07:36:00+00:00,1614843360,15.64,,,,,,,,,,25.216,0.35321,0.877,1.4032,0.0785792,0.1571584
2021-03-04 07:56:00+00:00,1614844560,15.82,,,,,,,,,,24.872,0.34835,0.879,1.4064,0.0407856,0.0815712